Location: Haliburton Scout Reserve
(45.0900°N, 78.3200°W)
Time: 03:14:28
(UTC-04:00)

PCSat - Pass Details

Date: 30 May 2022
Orbit: 784 x 795 km, 67.1° (Epoch: 24 June)

Event Time Altitude Azimuth Distance (km) Brightness Sun altitude
Rises 01:24:51 0° 330° (NNW) 3,305 13.7 -23.1°
Reaches altitude 10° 01:27:20 10° 335° (NNW) 2,372 12.9 -23.0°
Maximum altitude 01:32:40 54° 53° (NE) 959 10.1 -23.0°
Enters shadow 01:35:37 26° 120° (ESE) 1,532 10.8 -22.9°
